Torna al catalogo

STARLINK-37294

AttivoComunicazioniVLEO
NORAD 68559·PAYLOAD·🇺🇸 United States

Lanciato Apr 2, 2026 da Cape Canaveral Space Force Station

Loading…

Prossimi Passaggi (prossime 24 ore)

TLE

AggiornatoSource: CelesTrak SupGP

Epoca: Sep 14, 2026, 22:44 UTC

1 68559C 26070T   26257.94770833 -.00025482  00000+0 -75269-3 0  2572
2 68559  53.1577 199.5176 0001334  90.5480  34.2359 15.34411369    12

Traccia STARLINK-37294 in tempo reale con AllMySat

Download on the App Store